TimeCST,TemperatureF,Dew PointF,Humidity,Sea Level PressureIn,VisibilityMPH,Wind Direction,Wind SpeedMPH,Gust SpeedMPH,PrecipitationIn,Events,Conditions,WindDirDegrees,DateUTC
12:15 AM,51.8,33.8,50,30.11,10.0,SE,5.8,-,N/A,,Clear,130,2013-03-08 06:15:00
12:35 AM,51.8,33.8,50,30.12,10.0,SE,4.6,-,N/A,,Clear,140,2013-03-08 06:35:00
12:55 AM,51.8,33.8,50,30.12,10.0,SE,5.8,-,N/A,,Clear,140,2013-03-08 06:55:00
1:15 AM,51.8,33.8,50,30.11,10.0,SE,6.9,-,N/A,,Clear,130,2013-03-08 07:15:00
1:35 AM,51.8,33.8,50,30.12,10.0,SE,8.1,-,N/A,,Clear,130,2013-03-08 07:35:00
1:55 AM,51.8,33.8,50,30.12,10.0,SE,8.1,-,N/A,,Clear,130,2013-03-08 07:55:00
2:15 AM,51.8,33.8,50,30.11,10.0,SE,6.9,-,N/A,,Clear,130,2013-03-08 08:15:00
2:35 AM,51.8,35.6,54,30.11,10.0,SE,6.9,-,N/A,,Scattered Clouds,130,2013-03-08 08:35:00
2:55 AM,51.8,35.6,54,30.11,10.0,ESE,5.8,-,N/A,,Scattered Clouds,120,2013-03-08 08:55:00
3:15 AM,51.8,35.6,54,30.09,10.0,East,6.9,-,N/A,,Clear,100,2013-03-08 09:15:00
3:35 AM,51.8,35.6,54,30.10,10.0,ESE,4.6,-,N/A,,Clear,110,2013-03-08 09:35:00
3:55 AM,51.8,37.4,58,30.10,10.0,ESE,4.6,-,N/A,,Clear,120,2013-03-08 09:55:00
4:15 AM,51.8,37.4,58,30.10,10.0,ESE,5.8,-,N/A,,Clear,120,2013-03-08 10:15:00
4:35 AM,51.8,39.2,62,30.09,10.0,SE,6.9,-,N/A,,Clear,130,2013-03-08 10:35:00
4:55 AM,51.8,39.2,62,30.09,10.0,ESE,6.9,-,N/A,,Clear,110,2013-03-08 10:55:00
5:15 AM,51.8,41.0,67,30.10,10.0,East,3.5,-,N/A,,Clear,100,2013-03-08 11:15:00
5:35 AM,50.0,41.0,71,30.11,10.0,East,3.5,-,N/A,,Clear,90,2013-03-08 11:35:00
6:55 AM,51.8,42.8,71,30.13,10.0,ESE,5.8,-,N/A,,Overcast,110,2013-03-08 12:55:00
8:55 AM,53.6,46.4,77,30.15,10.0,SE,6.9,-,N/A,,Overcast,130,2013-03-08 14:55:00
9:55 AM,55.4,50.0,82,30.17,10.0,ESE,10.4,-,N/A,,Light Drizzle,120,2013-03-08 15:55:00
12:55 PM,59.0,50.0,72,30.10,10.0,SE,9.2,18.4,N/A,,Overcast,140,2013-03-08 18:55:00
2:55 PM,60.8,51.8,72,30.05,10.0,SE,8.1,-,N/A,,Overcast,140,2013-03-08 20:55:00
3:55 PM,60.8,51.8,72,30.05,10.0,SE,10.4,-,N/A,,Overcast,140,2013-03-08 21:55:00
4:55 PM,59.0,53.6,82,30.03,10.0,SE,12.7,19.6,N/A,,Mostly Cloudy,130,2013-03-08 22:55:00
5:55 PM,57.2,53.6,88,30.00,10.0,SE,12.7,17.3,N/A,,Overcast,140,2013-03-08 23:55:00
6:55 PM,57.2,51.8,82,30.02,10.0,SE,8.1,-,N/A,,Overcast,140,2013-03-09 00:55:00
10:35 PM,60.8,51.8,72,30.00,10.0,SE,6.9,-,N/A,,Overcast,140,2013-03-09 04:35:00
10:55 PM,59.0,51.8,77,29.99,10.0,ESE,8.1,-,N/A,,Overcast,120,2013-03-09 04:55:00
11:15 PM,59.0,51.8,77,29.98,10.0,ESE,9.2,-,N/A,,Mostly Cloudy,120,2013-03-09 05:15:00
11:35 PM,59.0,51.8,77,29.97,10.0,SE,10.4,-,N/A,,Mostly Cloudy,130,2013-03-09 05:35:00
11:55 PM,60.8,51.8,72,29.96,10.0,SE,10.4,-,N/A,,Overcast,130,2013-03-09 05:55:00